sat.trackr.live / text

‹ back to catalog

CZ-6A R/B

NORAD 69400 · 2026-124U

ROCKET_BODY UNKNOWN UNKNOWN

§ Identity

Operator
Country
PRC
Launch date
2026-06-04
Launch site
TAISC
Launch vehicle
Mass (kg)
RCS (m²)

External: N2YO · Heavens-Above · Gunter

§ Orbital elements

Epoch: 2026-07-02T19:44:05.595072Z

Period
98.81 min
Inclination
89.0260°
Eccentricity
0.0098072
Mean motion
14.57310905 rev/d
Perigee alt
632.4 km
Apogee alt
771.3 km
Semi-major
7,080.0 km
B*
5.6824e-5
RAAN
0.1255°
Arg perigee
8.7903°
Mean anomaly
351.4996°
Rev number
413

§ Raw data

CZ-6A R/B1 69400U 26124U   26183.82228698  .00000293  00000+0  56824-4 0  99912 69400  89.0260   0.1255 0098072   8.7903 351.4996 14.57310905  4132

JSON: /api/v1/satellites/69400 · /tle

For live sub-satellite position, see the globe view (requires WebGL).

§ Visibility from observer

Set your observer location to see the next 7 days of passes ≥ 10°. The values pass through the URL so the page stays shareable.

No JS? Fill the form by hand. The geolocation button needs JavaScript.